,,PressureMeas_1m,,PRMeasQMR101_1,,RHStat155_1m_1,,SRMeasQMS101R_1m,,TAStat155_1m_1,,GenWind_1,,GenWind_1,
2018-07-17, 00:00:06,VALID,917.251,VALID,0.0,VALID,98.89,VALID,-0.028,VALID,19.591,INVALID,360.0,VALID,0.0,
2018-07-17, 00:01:06,VALID,917.222,VALID,0.0,VALID,98.797,VALID,-0.016,VALID,19.516,INVALID,360.0,VALID,0.0,
2018-07-17, 00:02:06,VALID,917.225,VALID,0.0,VALID,98.787,VALID,-0.007,VALID,19.449,INVALID,360.0,VALID,0.0,
2018-07-17, 00:03:06,VALID,917.195,VALID,0.0,VALID,98.823,VALID,-0.018,VALID,19.435,INVALID,360.0,VALID,0.0,
2018-07-17, 00:04:06,VALID,917.177,VALID,0.0,VALID,98.849,VALID,-0.004,VALID,19.417,INVALID,360.0,VALID,0.0,
2018-07-17, 00:05:06,VALID,917.164,VALID,0.0,VALID,98.845,VALID,0.016,VALID,19.395,INVALID,360.0,VALID,0.0,
2018-07-17, 00:06:06,VALID,917.156,VALID,0.0,VALID,98.863,VALID,0.009,VALID,19.394,INVALID,360.0,VALID,0.0,
2018-07-17, 00:07:06,VALID,917.14,VALID,0.0,VALID,98.839,VALID,-0.008,VALID,19.384,INVALID,360.0,VALID,0.0,
2018-07-17, 00:08:06,VALID,917.134,VALID,0.0,VALID,98.849,VALID,-0.01,VALID,19.354,INVALID,360.0,VALID,0.0,
2018-07-17, 00:09:06,VALID,917.107,VALID,0.0,VALID,98.757,VALID,0.01,VALID,19.24,INVALID,360.0,VALID,0.0,
2018-07-17, 00:10:06,VALID,917.108,VALID,0.0,VALID,98.76,VALID,-0.003,VALID,19.173,INVALID,360.0,VALID,0.0,
2018-07-17, 00:11:06,VALID,917.119,VALID,0.0,VALID,98.848,VALID,0.013,VALID,19.188,INVALID,360.0,VALID,0.0,
2018-07-17, 00:12:06,VALID,917.121,VALID,0.0,VALID,98.868,VALID,0.011,VALID,19.2,INVALID,360.0,VALID,0.0,
2018-07-17, 00:13:06,VALID,917.116,VALID,0.0,VALID,98.858,VALID,0.013,VALID,19.188,INVALID,360.0,VALID,0.0,
2018-07-17, 00:14:06,VALID,917.113,VALID,0.0,VALID,98.872,VALID,0.0,VALID,19.17,INVALID,360.0,VALID,0.0,
2018-07-17, 00:15:06,VALID,917.117,VALID,0.0,VALID,98.871,VALID,0.011,VALID,19.148,INVALID,360.0,VALID,0.0,
2018-07-17, 00:16:06,VALID,917.164,VALID,0.0,VALID,98.888,VALID,-0.001,VALID,19.133,INVALID,360.0,VALID,0.0,
2018-07-17, 00:17:06,VALID,917.171,VALID,0.0,VALID,98.891,VALID,0.015,VALID,19.131,VALID,46.0,VALID,0.0,
2018-07-17, 00:18:06,VALID,917.182,VALID,0.0,VALID,98.888,VALID,0.018,VALID,19.118,INVALID,360.0,VALID,0.0,
2018-07-17, 00:19:06,VALID,917.175,VALID,0.0,VALID,98.9,VALID,0.019,VALID,19.117,INVALID,360.0,VALID,0.0,
2018-07-17, 00:20:06,VALID,917.163,VALID,0.0,VALID,98.854,VALID,0.011,VALID,19.056,INVALID,360.0,VALID,0.0,
2018-07-17, 00:21:06,VALID,917.162,VALID,0.0,VALID,98.858,VALID,-0.001,VALID,19.02,INVALID,360.0,VALID,0.0,
2018-07-17, 00:22:06,VALID,917.164,VALID,0.0,VALID,98.876,VALID,0.017,VALID,19.003,INVALID,360.0,VALID,0.0,
2018-07-17, 00:23:06,VALID,917.168,VALID,0.0,VALID,98.9,VALID,-0.001,VALID,19.015,INVALID,360.0,VALID,0.0,
2018-07-17, 00:24:06,VALID,917.183,VALID,0.0,VALID,98.949,VALID,-0.001,VALID,19.055,INVALID,360.0,VALID,0.0,
2018-07-17, 00:25:06,VALID,917.186,VALID,0.0,VALID,98.973,VALID,0.012,VALID,19.096,INVALID,360.0,VALID,0.0,
2018-07-17, 00:26:06,VALID,917.182,VALID,0.0,VALID,98.949,VALID,-0.003,VALID,19.107,INVALID,360.0,VALID,0.0,
2018-07-17, 00:27:06,VALID,917.16,VALID,0.0,VALID,98.949,VALID,0.02,VALID,19.09,INVALID,360.0,VALID,0.0,
2018-07-17, 00:28:06,VALID,917.147,VALID,0.0,VALID,98.916,VALID,0.019,VALID,19.052,INVALID,360.0,VALID,0.0,
2018-07-17, 00:29:06,VALID,917.135,VALID,0.0,VALID,98.914,VALID,0.019,VALID,19.016,INVALID,360.0,VALID,0.0,
2018-07-17, 00:30:06,VALID,917.135,VALID,0.0,VALID,98.949,VALID,0.015,VALID,19.028,INVALID,360.0,VALID,0.0,
2018-07-17, 00:31:06,VALID,917.125,VALID,0.0,VALID,98.974,VALID,0.024,VALID,19.043,INVALID,360.0,VALID,0.0,
2018-07-17, 00:32:06,VALID,917.115,VALID,0.0,VALID,98.958,VALID,0.011,VALID,19.039,INVALID,360.0,VALID,0.0,
2018-07-17, 00:33:06,VALID,917.122,VALID,0.0,VALID,98.961,VALID,0.012,VALID,19.046,INVALID,360.0,VALID,0.0,
2018-07-17, 00:34:06,VALID,917.127,VALID,0.0,VALID,98.987,VALID,0.003,VALID,19.027,INVALID,360.0,VALID,0.0,
2018-07-17, 00:35:06,VALID,917.111,VALID,0.0,VALID,98.971,VALID,-0.0,VALID,19.03,INVALID,360.0,VALID,0.0,
2018-07-17, 00:36:06,VALID,917.075,VALID,0.0,VALID,98.971,VALID,0.015,VALID,19.031,INVALID,360.0,VALID,0.0,
2018-07-17, 00:37:06,VALID,917.044,VALID,0.0,VALID,98.969,VALID,0.021,VALID,19.035,INVALID,360.0,VALID,0.0,
2018-07-17, 00:38:06,VALID,917.035,VALID,0.0,VALID,98.998,VALID,0.026,VALID,19.056,INVALID,360.0,VALID,0.0,
2018-07-17, 00:39:06,VALID,917.031,VALID,0.0,VALID,99.015,VALID,0.028,VALID,19.072,VALID,45.0,VALID,0.0,
2018-07-17, 00:40:06,VALID,917.012,VALID,0.0,VALID,99.043,VALID,0.008,VALID,19.106,INVALID,360.0,VALID,0.0,
2018-07-17, 00:41:06,VALID,916.993,VALID,0.0,VALID,99.025,VALID,0.012,VALID,19.122,INVALID,360.0,VALID,0.0,
2018-07-17, 00:42:06,VALID,916.991,VALID,0.0,VALID,99.024,VALID,0.023,VALID,19.108,INVALID,360.0,VALID,0.0,
2018-07-17, 00:43:06,VALID,917.007,VALID,0.0,VALID,99.009,VALID,0.026,VALID,19.105,INVALID,360.0,VALID,0.0,
2018-07-17, 00:44:06,VALID,917.044,VALID,0.0,VALID,99.021,VALID,-0.001,VALID,19.096,INVALID,360.0,VALID,0.0,
2018-07-17, 00:45:06,VALID,917.073,VALID,0.0,VALID,99.005,VALID,0.011,VALID,19.101,INVALID,360.0,VALID,0.0,
2018-07-17, 00:46:06,VALID,917.094,VALID,0.0,VALID,99.0,VALID,0.015,VALID,19.062,INVALID,360.0,VALID,0.0,
2018-07-17, 00:47:06,VALID,917.102,VALID,0.0,VALID,99.014,VALID,0.008,VALID,19.056,INVALID,360.0,VALID,0.0,
2018-07-17, 00:48:06,VALID,917.086,VALID,0.0,VALID,99.016,VALID,0.019,VALID,19.052,INVALID,360.0,VALID,0.0,
2018-07-17, 00:49:06,VALID,917.064,VALID,0.0,VALID,99.004,VALID,0.005,VALID,19.01,INVALID,360.0,VALID,0.0,
2018-07-17, 00:50:06,VALID,917.042,VALID,0.0,VALID,98.938,VALID,-0.012,VALID,18.912,INVALID,360.0,VALID,0.0,
2018-07-17, 00:51:06,VALID,917.058,VALID,0.0,VALID,98.96,VALID,-0.002,VALID,18.879,INVALID,360.0,VALID,0.0,
2018-07-17, 00:52:06,VALID,917.063,VALID,0.0,VALID,99.003,VALID,-0.005,VALID,18.899,INVALID,360.0,VALID,0.0,
2018-07-17, 00:53:06,VALID,917.057,VALID,0.0,VALID,99.016,VALID,0.005,VALID,18.9,INVALID,360.0,VALID,0.0,
2018-07-17, 00:54:06,VALID,917.03,VALID,0.0,VALID,99.023,VALID,0.006,VALID,18.91,INVALID,360.0,VALID,0.0,
2018-07-17, 00:55:06,VALID,917.018,VALID,0.0,VALID,99.084,VALID,0.002,VALID,19.027,INVALID,360.0,VALID,0.0,
2018-07-17, 00:56:06,VALID,917.004,VALID,0.0,VALID,99.124,VALID,0.017,VALID,19.1,INVALID,360.0,VALID,0.0,
2018-07-17, 00:57:06,VALID,916.987,VALID,0.0,VALID,99.085,VALID,0.001,VALID,19.113,INVALID,360.0,VALID,0.0,
2018-07-17, 00:58:07,VALID,916.966,VALID,0.0,VALID,99.112,VALID,0.008,VALID,19.174,INVALID,360.0,VALID,0.0,
2018-07-17, 00:59:07,VALID,916.962,VALID,0.0,VALID,99.089,VALID,0.011,VALID,19.166,INVALID,360.0,VALID,0.0,
2018-07-17, 01:00:07,VALID,916.947,VALID,0.0,VALID,99.078,VALID,0.01,VALID,19.142,VALID,45.0,VALID,0.0,
2018-07-17, 01:01:07,VALID,916.919,VALID,0.0,VALID,99.077,VALID,0.007,VALID,19.138,VALID,45.0,VALID,0.0,
2018-07-17, 01:02:07,VALID,916.916,VALID,0.0,VALID,99.065,VALID,0.022,VALID,19.108,VALID,45.0,VALID,0.0,
2018-07-17, 01:03:07,VALID,916.902,VALID,0.0,VALID,99.072,VALID,0.031,VALID,19.085,INVALID,360.0,VALID,0.0,
2018-07-17, 01:04:07,VALID,916.881,VALID,0.0,VALID,99.057,VALID,0.019,VALID,19.076,INVALID,360.0,VALID,0.0,
2018-07-17, 01:05:07,VALID,916.87,VALID,0.0,VALID,99.072,VALID,0.011,VALID,19.064,INVALID,360.0,VALID,0.0,
2018-07-17, 01:06:07,VALID,916.855,VALID,0.0,VALID,99.063,VALID,-0.009,VALID,19.05,INVALID,360.0,VALID,0.0,
2018-07-17, 01:07:07,VALID,916.859,VALID,0.0,VALID,99.064,VALID,-0.017,VALID,19.032,INVALID,360.0,VALID,0.0,
2018-07-17, 01:08:07,VALID,916.849,VALID,0.0,VALID,99.044,VALID,-0.011,VALID,19.003,INVALID,360.0,VALID,0.0,
2018-07-17, 01:09:07,VALID,916.85,VALID,0.0,VALID,99.055,VALID,-0.034,VALID,18.994,INVALID,360.0,VALID,0.0,
2018-07-17, 01:10:07,VALID,916.844,VALID,0.0,VALID,99.102,VALID,-0.023,VALID,19.015,INVALID,360.0,VALID,0.0,
2018-07-17, 01:11:07,VALID,916.857,VALID,0.0,VALID,99.102,VALID,-0.009,VALID,19.011,INVALID,360.0,VALID,0.0,
2018-07-17, 01:12:07,VALID,916.843,VALID,0.0,VALID,99.091,VALID,-0.011,VALID,18.985,INVALID,360.0,VALID,0.0,
2018-07-17, 01:13:07,VALID,916.852,VALID,0.0,VALID,99.088,VALID,-0.043,VALID,18.994,INVALID,360.0,VALID,0.0,
2018-07-17, 01:14:07,VALID,916.859,VALID,0.0,VALID,99.077,VALID,-0.017,VALID,19.0,INVALID,360.0,VALID,0.0,
2018-07-17, 01:15:07,VALID,916.854,VALID,0.0,VALID,99.104,VALID,-0.014,VALID,18.998,INVALID,360.0,VALID,0.0,
2018-07-17, 01:16:07,VALID,916.84,VALID,0.0,VALID,99.089,VALID,-0.02,VALID,18.976,INVALID,360.0,VALID,0.0,
2018-07-17, 01:17:07,VALID,916.842,VALID,0.0,VALID,99.087,VALID,-0.036,VALID,18.971,INVALID,360.0,VALID,0.0,
2018-07-17, 01:18:07,VALID,916.839,VALID,0.0,VALID,99.098,VALID,-0.032,VALID,18.979,INVALID,360.0,VALID,0.0,
2018-07-17, 01:19:07,VALID,916.816,VALID,0.0,VALID,99.079,VALID,-0.036,VALID,18.972,INVALID,360.0,VALID,0.0,
2018-07-17, 01:20:07,VALID,916.789,VALID,0.0,VALID,99.08,VALID,-0.003,VALID,18.94,INVALID,360.0,VALID,0.0,
2018-07-17, 01:21:07,VALID,916.771,VALID,0.0,VALID,99.055,VALID,0.014,VALID,18.876,INVALID,360.0,VALID,0.0,
2018-07-17, 01:22:07,VALID,916.751,VALID,0.0,VALID,99.063,VALID,0.021,VALID,18.845,INVALID,360.0,VALID,0.0,
2018-07-17, 01:23:07,VALID,916.739,VALID,0.0,VALID,99.074,VALID,0.013,VALID,18.843,INVALID,360.0,VALID,0.0,
2018-07-17, 01:24:07,VALID,916.736,VALID,0.0,VALID,99.053,VALID,0.02,VALID,18.809,INVALID,360.0,VALID,0.0,
2018-07-17, 01:25:07,VALID,916.743,VALID,0.0,VALID,99.104,VALID,0.001,VALID,18.824,INVALID,360.0,VALID,0.0,
2018-07-17, 01:26:07,VALID,916.762,VALID,0.0,VALID,99.072,VALID,0.019,VALID,18.798,INVALID,360.0,VALID,0.0,
2018-07-17, 01:27:07,VALID,916.775,VALID,0.0,VALID,99.075,VALID,0.047,VALID,18.768,INVALID,360.0,VALID,0.0,
2018-07-17, 01:28:07,VALID,916.796,VALID,0.0,VALID,99.071,VALID,0.019,VALID,18.752,INVALID,360.0,VALID,0.0,
2018-07-17, 01:29:07,VALID,916.797,VALID,0.0,VALID,99.107,VALID,0.013,VALID,18.741,INVALID,360.0,VALID,0.0,
2018-07-17, 01:30:07,VALID,916.797,VALID,0.0,VALID,99.104,VALID,0.021,VALID,18.748,INVALID,360.0,VALID,0.0,
2018-07-17, 01:31:07,VALID,916.776,VALID,0.0,VALID,99.093,VALID,0.015,VALID,18.732,INVALID,360.0,VALID,0.0,
2018-07-17, 01:32:07,VALID,916.765,VALID,0.0,VALID,99.094,VALID,0.021,VALID,18.724,INVALID,360.0,VALID,0.0,
2018-07-17, 01:33:07,VALID,916.764,VALID,0.0,VALID,99.094,VALID,0.023,VALID,18.716,INVALID,360.0,VALID,0.0,
2018-07-17, 01:34:07,VALID,916.757,VALID,0.0,VALID,99.085,VALID,0.031,VALID,18.699,INVALID,360.0,VALID,0.0,
2018-07-17, 01:35:07,VALID,916.733,VALID,0.0,VALID,99.083,VALID,-0.001,VALID,18.669,INVALID,360.0,VALID,0.0,
2018-07-17, 01:36:07,VALID,916.709,VALID,0.0,VALID,99.104,VALID,-0.018,VALID,18.686,INVALID,360.0,VALID,0.0,
2018-07-17, 01:37:07,VALID,916.702,VALID,0.0,VALID,99.116,VALID,-0.011,VALID,18.699,INVALID,360.0,VALID,0.0,
2018-07-17, 01:38:07,VALID,916.711,VALID,0.0,VALID,99.102,VALID,0.012,VALID,18.695,INVALID,360.0,VALID,0.0,
2018-07-17, 01:39:07,VALID,916.719,VALID,0.0,VALID,99.088,VALID,0.004,VALID,18.67,INVALID,360.0,VALID,0.0,
2018-07-17, 01:40:07,VALID,916.722,VALID,0.0,VALID,99.134,VALID,0.015,VALID,18.652,INVALID,360.0,VALID,0.0,
2018-07-17, 01:41:07,VALID,916.729,VALID,0.0,VALID,99.098,VALID,0.002,VALID,18.619,INVALID,360.0,VALID,0.0,
2018-07-17, 01:42:07,VALID,916.719,VALID,0.0,VALID,99.101,VALID,-0.006,VALID,18.601,INVALID,360.0,VALID,0.0,
2018-07-17, 01:43:07,VALID,916.7,VALID,0.0,VALID,99.112,VALID,0.009,VALID,18.599,INVALID,360.0,VALID,0.0,
2018-07-17, 01:44:07,VALID,916.676,VALID,0.0,VALID,99.127,VALID,0.007,VALID,18.595,INVALID,360.0,VALID,0.0,
2018-07-17, 01:45:07,VALID,916.658,VALID,0.0,VALID,99.098,VALID,-0.025,VALID,18.59,INVALID,360.0,VALID,0.0,
2018-07-17, 01:46:07,VALID,916.657,VALID,0.0,VALID,99.11,VALID,-0.005,VALID,18.584,INVALID,360.0,VALID,0.0,
2018-07-17, 01:47:07,VALID,916.641,VALID,0.0,VALID,99.133,VALID,-0.003,VALID,18.605,INVALID,360.0,VALID,0.0,
2018-07-17, 01:48:07,VALID,916.598,VALID,0.0,VALID,99.129,VALID,-0.004,VALID,18.63,INVALID,360.0,VALID,0.0,
2018-07-17, 01:49:07,VALID,916.56,VALID,0.0,VALID,99.13,VALID,0.006,VALID,18.645,INVALID,360.0,VALID,0.0,
2018-07-17, 01:50:07,VALID,916.534,VALID,0.0,VALID,99.131,VALID,0.001,VALID,18.632,INVALID,360.0,VALID,0.0,
2018-07-17, 01:51:07,VALID,916.509,VALID,0.0,VALID,99.115,VALID,0.016,VALID,18.607,INVALID,360.0,VALID,0.0,
2018-07-17, 01:52:07,VALID,916.493,VALID,0.0,VALID,99.125,VALID,0.009,VALID,18.589,INVALID,360.0,VALID,0.0,
2018-07-17, 01:53:07,VALID,916.481,VALID,0.0,VALID,99.111,VALID,0.023,VALID,18.575,INVALID,360.0,VALID,0.0,
2018-07-17, 01:54:07,VALID,916.449,VALID,0.0,VALID,99.127,VALID,0.009,VALID,18.545,INVALID,360.0,VALID,0.0,
2018-07-17, 01:55:07,VALID,916.42,VALID,0.0,VALID,99.111,VALID,0.009,VALID,18.516,INVALID,360.0,VALID,0.0,
2018-07-17, 01:56:07,VALID,916.403,VALID,0.0,VALID,99.094,VALID,0.003,VALID,18.497,INVALID,360.0,VALID,0.0,
2018-07-17, 01:57:07,VALID,916.394,VALID,0.0,VALID,99.138,VALID,0.014,VALID,18.539,INVALID,360.0,VALID,0.0,
2018-07-17, 01:58:07,VALID,916.409,VALID,0.0,VALID,99.138,VALID,0.015,VALID,18.558,INVALID,360.0,VALID,0.0,
2018-07-17, 01:59:07,VALID,916.411,VALID,0.0,VALID,99.146,VALID,0.008,VALID,18.579,VALID,44.0,VALID,0.0,
2018-07-17, 02:00:07,VALID,916.413,VALID,0.0,VALID,99.165,VALID,0.016,VALID,18.615,INVALID,360.0,VALID,0.0,
2018-07-17, 02:01:07,VALID,916.397,VALID,0.0,VALID,99.16,VALID,0.018,VALID,18.641,INVALID,360.0,VALID,0.0,
2018-07-17, 02:02:07,VALID,916.377,VALID,0.0,VALID,99.164,VALID,0.015,VALID,18.633,INVALID,360.0,VALID,0.0,
2018-07-17, 02:03:07,VALID,916.357,VALID,0.0,VALID,99.122,VALID,0.018,VALID,18.561,INVALID,360.0,VALID,0.0,
2018-07-17, 02:04:07,VALID,916.361,VALID,0.0,VALID,99.095,VALID,0.011,VALID,18.528,INVALID,360.0,VALID,0.0,
2018-07-17, 02:05:07,VALID,916.367,VALID,0.0,VALID,99.109,VALID,0.012,VALID,18.521,INVALID,360.0,VALID,0.0,
2018-07-17, 02:06:07,VALID,916.39,VALID,0.0,VALID,99.142,VALID,-0.017,VALID,18.524,INVALID,360.0,VALID,0.0,
2018-07-17, 02:07:07,VALID,916.421,VALID,0.0,VALID,99.126,VALID,0.006,VALID,18.5,INVALID,360.0,VALID,0.0,
2018-07-17, 02:08:07,VALID,916.451,VALID,0.0,VALID,99.096,VALID,0.002,VALID,18.453,INVALID,360.0,VALID,0.0,
2018-07-17, 02:09:07,VALID,916.473,VALID,0.0,VALID,99.1,VALID,0.005,VALID,18.401,INVALID,360.0,VALID,0.0,
2018-07-17, 02:10:07,VALID,916.466,VALID,0.0,VALID,99.121,VALID,-0.005,VALID,18.385,INVALID,360.0,VALID,0.0,
2018-07-17, 02:11:07,VALID,916.469,VALID,0.0,VALID,99.095,VALID,0.009,VALID,18.366,INVALID,360.0,VALID,0.0,
2018-07-17, 02:12:07,VALID,916.473,VALID,0.0,VALID,99.081,VALID,0.002,VALID,18.32,INVALID,360.0,VALID,0.0,
2018-07-17, 02:13:07,VALID,916.487,VALID,0.0,VALID,99.062,VALID,-0.004,VALID,18.286,INVALID,360.0,VALID,0.0,
2018-07-17, 02:14:07,VALID,916.503,VALID,0.0,VALID,99.09,VALID,0.011,VALID,18.281,INVALID,360.0,VALID,0.0,
2018-07-17, 02:15:07,VALID,916.522,VALID,0.0,VALID,99.085,VALID,0.022,VALID,18.267,INVALID,360.0,VALID,0.0,
2018-07-17, 02:16:07,VALID,916.548,VALID,0.0,VALID,99.121,VALID,0.005,VALID,18.275,INVALID,360.0,VALID,0.0,
2018-07-17, 02:17:07,VALID,916.548,VALID,0.0,VALID,99.114,VALID,0.01,VALID,18.273,INVALID,360.0,VALID,0.0,
2018-07-17, 02:18:07,VALID,916.546,VALID,0.0,VALID,99.119,VALID,-0.008,VALID,18.264,INVALID,360.0,VALID,0.0,
2018-07-17, 02:19:07,VALID,916.565,VALID,0.0,VALID,99.117,VALID,0.005,VALID,18.243,INVALID,360.0,VALID,0.0,
2018-07-17, 02:20:07,VALID,916.577,VALID,0.0,VALID,99.106,VALID,-0.017,VALID,18.244,INVALID,360.0,VALID,0.0,
2018-07-17, 02:21:07,VALID,916.576,VALID,0.0,VALID,99.13,VALID,0.004,VALID,18.249,INVALID,360.0,VALID,0.0,
2018-07-17, 02:22:07,VALID,916.589,VALID,0.0,VALID,99.138,VALID,-0.006,VALID,18.253,INVALID,360.0,VALID,0.0,
2018-07-17, 02:23:07,VALID,916.574,VALID,0.0,VALID,99.132,VALID,-0.003,VALID,18.257,INVALID,360.0,VALID,0.0,
2018-07-17, 02:24:07,VALID,916.562,VALID,0.0,VALID,99.122,VALID,0.0,VALID,18.254,INVALID,360.0,VALID,0.0,
2018-07-17, 02:25:07,VALID,916.577,VALID,0.0,VALID,99.121,VALID,-0.015,VALID,18.248,INVALID,360.0,VALID,0.0,
2018-07-17, 02:26:07,VALID,916.563,VALID,0.0,VALID,99.134,VALID,-0.009,VALID,18.235,INVALID,360.0,VALID,0.0,
2018-07-17, 02:27:07,VALID,916.565,VALID,0.0,VALID,99.122,VALID,-0.011,VALID,18.215,INVALID,360.0,VALID,0.0,
2018-07-17, 02:28:07,VALID,916.546,VALID,0.0,VALID,99.118,VALID,-0.01,VALID,18.202,INVALID,360.0,VALID,0.0,
2018-07-17, 02:29:07,VALID,916.537,VALID,0.0,VALID,99.15,VALID,-0.024,VALID,18.209,INVALID,360.0,VALID,0.0,
2018-07-17, 02:30:07,VALID,916.539,VALID,0.0,VALID,99.129,VALID,-0.019,VALID,18.2,INVALID,360.0,VALID,0.0,
2018-07-17, 02:31:07,VALID,916.542,VALID,0.0,VALID,99.119,VALID,-0.025,VALID,18.177,INVALID,360.0,VALID,0.0,
2018-07-17, 02:32:07,VALID,916.537,VALID,0.0,VALID,99.087,VALID,-0.008,VALID,18.145,INVALID,360.0,VALID,0.0,
2018-07-17, 02:33:07,VALID,916.534,VALID,0.0,VALID,99.057,VALID,-0.018,VALID,18.079,INVALID,360.0,VALID,0.0,
2018-07-17, 02:34:07,VALID,916.529,VALID,0.0,VALID,99.068,VALID,-0.012,VALID,18.044,INVALID,360.0,VALID,0.0,
2018-07-17, 02:35:07,VALID,916.539,VALID,0.0,VALID,99.118,VALID,0.001,VALID,18.076,INVALID,360.0,VALID,0.0,
2018-07-17, 02:36:07,VALID,916.544,VALID,0.0,VALID,99.126,VALID,-0.029,VALID,18.08,INVALID,360.0,VALID,0.0,
2018-07-17, 02:37:07,VALID,916.536,VALID,0.0,VALID,99.127,VALID,-0.029,VALID,18.077,INVALID,360.0,VALID,0.0,
2018-07-17, 02:38:07,VALID,916.517,VALID,0.0,VALID,99.139,VALID,-0.032,VALID,18.089,INVALID,360.0,VALID,0.0,
2018-07-17, 02:39:07,VALID,916.512,VALID,0.0,VALID,99.094,VALID,-0.033,VALID,18.047,INVALID,360.0,VALID,0.0,
2018-07-17, 02:40:07,VALID,916.519,VALID,0.0,VALID,99.025,VALID,-0.022,VALID,17.966,INVALID,360.0,VALID,0.0,
2018-07-17, 02:41:07,VALID,916.528,VALID,0.0,VALID,99.1,VALID,-0.008,VALID,17.969,INVALID,360.0,VALID,0.0,
2018-07-17, 02:42:07,VALID,916.495,VALID,0.0,VALID,99.109,VALID,-0.027,VALID,17.988,INVALID,360.0,VALID,0.0,
2018-07-17, 02:43:07,VALID,916.454,VALID,0.0,VALID,99.095,VALID,-0.027,VALID,17.976,INVALID,360.0,VALID,0.0,
2018-07-17, 02:44:07,VALID,916.421,VALID,0.0,VALID,99.085,VALID,-0.038,VALID,17.995,INVALID,360.0,VALID,0.0,
2018-07-17, 02:45:07,VALID,916.41,VALID,0.0,VALID,99.095,VALID,-0.012,VALID,17.996,INVALID,360.0,VALID,0.0,
2018-07-17, 02:46:07,VALID,916.418,VALID,0.0,VALID,99.112,VALID,-0.03,VALID,18.066,INVALID,360.0,VALID,0.0,
2018-07-17, 02:47:07,VALID,916.404,VALID,0.0,VALID,99.151,VALID,-0.03,VALID,18.137,VALID,45.0,VALID,0.0,
2018-07-17, 02:48:07,VALID,916.379,VALID,0.0,VALID,99.134,VALID,-0.011,VALID,18.125,INVALID,360.0,VALID,0.0,
2018-07-17, 02:49:07,VALID,916.342,VALID,0.0,VALID,99.119,VALID,-0.02,VALID,18.096,INVALID,360.0,VALID,0.0,
2018-07-17, 02:50:07,VALID,916.321,VALID,0.0,VALID,99.068,VALID,-0.004,VALID,18.015,INVALID,360.0,VALID,0.0,
2018-07-17, 02:51:07,VALID,916.317,VALID,0.0,VALID,99.045,VALID,-0.016,VALID,17.996,INVALID,360.0,VALID,0.0,
2018-07-17, 02:52:07,VALID,916.3,VALID,0.0,VALID,99.062,VALID,-0.032,VALID,18.001,INVALID,360.0,VALID,0.0,
2018-07-17, 02:53:07,VALID,916.299,VALID,0.0,VALID,99.064,VALID,-0.035,VALID,18.006,INVALID,360.0,VALID,0.0,
2018-07-17, 02:54:07,VALID,916.289,VALID,0.0,VALID,99.084,VALID,-0.023,VALID,18.034,VALID,45.0,VALID,0.0,
2018-07-17, 02:55:07,VALID,916.281,VALID,0.0,VALID,99.079,VALID,-0.029,VALID,18.053,VALID,44.0,VALID,0.0,
2018-07-17, 02:56:07,VALID,916.27,VALID,0.0,VALID,99.101,VALID,-0.024,VALID,18.088,INVALID,360.0,VALID,0.0,
2018-07-17, 02:57:07,VALID,916.235,VALID,0.0,VALID,99.089,VALID,-0.026,VALID,18.116,VALID,44.0,VALID,0.0,
2018-07-17, 02:58:07,VALID,916.224,VALID,0.0,VALID,99.07,VALID,-0.04,VALID,18.13,INVALID,360.0,VALID,0.0,
2018-07-17, 02:59:07,VALID,916.213,VALID,0.0,VALID,99.035,VALID,-0.031,VALID,18.051,INVALID,360.0,VALID,0.0,
2018-07-17, 03:00:07,VALID,916.214,VALID,0.0,VALID,99.012,VALID,-0.016,VALID,18.002,INVALID,360.0,VALID,0.0,
2018-07-17, 03:01:07,VALID,916.217,VALID,0.0,VALID,99.047,VALID,-0.031,VALID,18.023,INVALID,360.0,VALID,0.0,
2018-07-17, 03:02:06,VALID,916.219,VALID,0.0,VALID,99.019,VALID,-0.019,VALID,18.033,INVALID,360.0,VALID,0.0,
2018-07-17, 03:03:06,VALID,916.201,VALID,0.0,VALID,99.061,VALID,-0.007,VALID,18.061,VALID,44.0,VALID,0.0,
2018-07-17, 03:04:06,VALID,916.208,VALID,0.0,VALID,99.036,VALID,-0.026,VALID,18.044,INVALID,360.0,VALID,0.0,
2018-07-17, 03:05:06,VALID,916.222,VALID,0.0,VALID,99.003,VALID,-0.018,VALID,18.019,INVALID,360.0,VALID,0.0,
2018-07-17, 03:06:06,VALID,916.229,VALID,0.0,VALID,98.964,VALID,-0.013,VALID,17.961,INVALID,360.0,VALID,0.0,
2018-07-17, 03:07:06,VALID,916.241,VALID,0.0,VALID,98.934,VALID,-0.021,VALID,17.919,INVALID,360.0,VALID,0.0,
2018-07-17, 03:08:06,VALID,916.254,VALID,0.0,VALID,98.921,VALID,-0.023,VALID,17.882,INVALID,360.0,VALID,0.0,
2018-07-17, 03:09:06,VALID,916.262,VALID,0.0,VALID,98.889,VALID,-0.005,VALID,17.843,INVALID,360.0,VALID,0.0,
2018-07-17, 03:10:06,VALID,916.262,VALID,0.0,VALID,98.952,VALID,-0.009,VALID,17.886,INVALID,360.0,VALID,0.0,
2018-07-17, 03:11:06,VALID,916.267,VALID,0.0,VALID,98.883,VALID,-0.011,VALID,17.86,INVALID,360.0,VALID,0.0,
2018-07-17, 03:12:06,VALID,916.257,VALID,0.0,VALID,98.856,VALID,-0.028,VALID,17.86,INVALID,360.0,VALID,0.0,
2018-07-17, 03:13:06,VALID,916.253,VALID,0.0,VALID,98.866,VALID,-0.027,VALID,17.876,INVALID,360.0,VALID,0.0,
2018-07-17, 03:14:06,VALID,916.248,VALID,0.0,VALID,98.792,VALID,-0.007,VALID,17.861,INVALID,360.0,VALID,0.0,
2018-07-17, 03:15:06,VALID,916.254,VALID,0.0,VALID,98.764,VALID,-0.03,VALID,17.874,INVALID,360.0,VALID,0.0,
2018-07-17, 03:16:06,VALID,916.249,VALID,0.0,VALID,98.743,VALID,-0.02,VALID,17.877,INVALID,360.0,VALID,0.0,
2018-07-17, 03:17:06,VALID,916.24,VALID,0.0,VALID,98.721,VALID,-0.008,VALID,17.885,INVALID,360.0,VALID,0.0,
2018-07-17, 03:18:06,VALID,916.242,VALID,0.0,VALID,98.701,VALID,-0.006,VALID,17.898,INVALID,360.0,VALID,0.0,
2018-07-17, 03:19:06,VALID,916.272,VALID,0.0,VALID,98.654,VALID,-0.011,VALID,17.889,INVALID,360.0,VALID,0.0,
2018-07-17, 03:20:06,VALID,916.29,VALID,0.0,VALID,98.568,VALID,-0.013,VALID,17.867,INVALID,360.0,VALID,0.0,
2018-07-17, 03:21:06,VALID,916.291,VALID,0.0,VALID,98.482,VALID,-0.004,VALID,17.83,INVALID,360.0,VALID,0.0,
2018-07-17, 03:22:06,VALID,916.291,VALID,0.0,VALID,98.399,VALID,-0.013,VALID,17.79,INVALID,360.0,VALID,0.0,
2018-07-17, 03:23:06,VALID,916.313,VALID,0.0,VALID,98.363,VALID,-0.019,VALID,17.77,INVALID,360.0,VALID,0.0,
2018-07-17, 03:24:06,VALID,916.336,VALID,0.0,VALID,98.482,VALID,-0.022,VALID,17.84,INVALID,360.0,VALID,0.0,
2018-07-17, 03:25:06,VALID,916.352,VALID,0.0,VALID,98.491,VALID,-0.01,VALID,17.855,INVALID,360.0,VALID,0.0,
2018-07-17, 03:26:06,VALID,916.369,VALID,0.0,VALID,98.38,VALID,-0.021,VALID,17.837,INVALID,360.0,VALID,0.0,
2018-07-17, 03:27:06,VALID,916.357,VALID,0.0,VALID,98.223,VALID,-0.028,VALID,17.781,INVALID,360.0,VALID,0.0,
2018-07-17, 03:28:06,VALID,916.364,VALID,0.0,VALID,98.125,VALID,-0.003,VALID,17.748,INVALID,360.0,VALID,0.0,
2018-07-17, 03:29:06,VALID,916.362,VALID,0.0,VALID,98.082,VALID,-0.018,VALID,17.727,INVALID,360.0,VALID,0.0,
2018-07-17, 03:30:06,VALID,916.353,VALID,0.0,VALID,97.937,VALID,-0.018,VALID,17.673,INVALID,360.0,VALID,0.0,
2018-07-17, 03:31:06,VALID,916.348,VALID,0.0,VALID,97.863,VALID,-0.007,VALID,17.611,INVALID,360.0,VALID,0.0,
2018-07-17, 03:32:06,VALID,916.342,VALID,0.0,VALID,97.977,VALID,-0.017,VALID,17.626,VALID,357.0,VALID,0.0,
2018-07-17, 03:33:06,VALID,916.333,VALID,0.0,VALID,98.091,VALID,-0.008,VALID,17.656,VALID,349.0,VALID,0.0,
2018-07-17, 03:34:06,VALID,916.333,VALID,0.0,VALID,98.162,VALID,-0.018,VALID,17.684,VALID,13.0,VALID,0.0,
2018-07-17, 03:35:06,VALID,916.335,VALID,0.0,VALID,98.197,VALID,0.002,VALID,17.685,VALID,7.0,VALID,0.0,
2018-07-17, 03:36:06,VALID,916.333,VALID,0.0,VALID,98.222,VALID,-0.006,VALID,17.703,VALID,327.0,VALID,0.0,
2018-07-17, 03:37:06,VALID,916.332,VALID,0.0,VALID,98.268,VALID,0.004,VALID,17.729,VALID,300.0,VALID,0.0,
2018-07-17, 03:38:06,VALID,916.315,VALID,0.0,VALID,98.335,VALID,0.014,VALID,17.78,VALID,294.0,VALID,0.0,